DMSP 5D-2 F13 DEB, 40610

Orbit data source: Space-Track

DMSP 5D-2 F13 DEB, 40610 is space debris in SSO originally from a launch on Fri, 24 Mar 1995 UTC launched from the Air Force Western Test Range (AFWTR). Debris objects in space refer to the collection of defunct objects orbiting the Earth. Examples of debris include non-operational satellites, rocket bodies, and fragments generated from explosions, collisions, or faulty payload assembly.

Loading next visibility...
DMSP 5D-2 F13 DEB details
Identifier
40610, 1995-015FH
Orbit
SSO
Last TLE update2 days ago
Origin
Flag of USUSAF SMC (US)
ManufacturerUnknown
MissionSpacecraft
Bus & MotorUnknown
MassUnknown
Launch date (UTC)
1995-03-24 (30 years ago)
Launch vehicleUnknown
Launch site
Air Force Western Test Range (AFWTR)
Object type
Payload
Rocket body
Debris
Shape & HBRUnknown
Radar Cross SectionSmall (<0.1 m²)

Expand to show TLE details & history

TLE from 2 days ago
0 DMSP 5D-2 F13 DEB
1 40610U 95015FH  24335.30244141  .00017763  00000-0  63893-2 0  9992
2 40610  98.7255 357.5222 0027447 273.6058  86.1987 14.33580747498462
Epoch: 2024-11-30T07:15Z
Definitive object data (Epoch: 2024-11-30T07:15:30.937Z)
Latitude-0.00005°
Longitude178.98635°
Altitude781.47 km
Speed7.464 km/s
True Right ascension23h 50m 05s
True Declination0° 00' 00"
Sunlit
Object was in daylight at TLE epoch
Visualization TLE readout
Latitude-7.99981°
Longitude-0.16598°
Altitude780.27 km
Speed7.465 km/s
Apparent Right ascension14h 23m 01s
Apparent Declination-32° 24' 47"
Sunlit
Object is in daylight
Visualization observer readout
Local Sidereal Time06:28:58
Azimuth101.619° ESE
Elevation-40.771°
Doppler factor1
Orbital elements
Apogee altitude796.566 km
Perigee altitude757.289 km
Semi-major axis7,155.065 km
Eccentricity0.0027447
Inclination98.7255°
RAAN357.5222°
Arg. of periapsis273.6058°
True anomaly86.5126°
Mean anomaly86.1987°
Eccentric anomaly86.35564°
Mean motion3.5861 °/min
BSTAR0.0063893
Orbital period100.39 mins
Loading maneuver chart data...

DMSP 5D-2 F13 DEB Visibility forecast

Observer location: undefined°, undefined

Span
Click to sort rows by Start time (UTC) header in descending order
Start Az.
Max El. time (UTC)
Max El. Az.
Max El.
End time (UTC)
End Az.
7 mins2024-12-02 13:27:41.676Z48.583° ENE2024-12-02 13:31:41.676Z100.244° ESE18.458°2024-12-02 13:34:41.676Z137.192° SSE
7 mins2024-12-02 15:07:41.676Z352.462° N2024-12-02 15:10:41.676Z289.782° WNW36.723°2024-12-02 15:14:41.676Z219.825° SW
7 mins2024-12-03 00:44:41.676Z109.848° ESE2024-12-03 00:47:41.676Z59.351° ENE25.096°2024-12-03 00:51:41.676Z9.356° NNE
7 mins2024-12-03 02:23:41.676Z211.921° SW2024-12-03 02:26:41.676Z269.18° W29.555°2024-12-03 02:30:41.676Z325.373° NNW
|